| time (UTC) | temp F | wind direction | speed knots | gust knots | rain 1hr in | rain 24hr in | rain mn in | humidity % | barometer mb |
| 20260503192814 | 63 | 193 | 0.9 | 6.1 | 0.00 | 0.00 | 0.00 | 64 | 1014.8 |
| 20260503192310 | 63 | 182 | 0.9 | 1.7 | 0.00 | 0.00 | 0.00 | 67 | 1014.9 |
| 20260503191806 | 63 | 192 | 1.7 | 4.3 | 0.00 | 0.00 | 0.00 | 66 | 1014.9 |
| 20260503191304 | 63 | 186 | 1.7 | 4.3 | 0.00 | 0.00 | 0.00 | 65 | 1015.0 |
| 20260503190800 | 64 | 181 | 0.9 | 2.6 | 0.00 | 0.00 | 0.00 | 65 | 1014.8 |
| 20260503190257 | 64 | 174 | 0.9 | 2.6 | 0.00 | 0.00 | 0.00 | 65 | 1014.8 |
| 20260503185754 | 64 | 181 | 0.9 | 2.6 | 0.00 | 0.00 | 0.00 | 65 | 1015.0 |
| 20260503185250 | 64 | 170 | 0.9 | 2.6 | 0.00 | 0.00 | 0.00 | 64 | 1014.9 |
| 20260503184744 | 64 | 178 | 1.7 | 1.7 | 0.00 | 0.00 | 0.00 | 65 | 1014.8 |
| 20260503184241 | 63 | 157 | 0.9 | 1.7 | 0.00 | 0.00 | 0.00 | 66 | 1014.8 |
| 20260503183737 | 63 | 186 | 1.7 | 4.3 | 0.00 | 0.00 | 0.00 | 65 | 1014.9 |
| 20260503183234 | 63 | 164 | 0.9 | 2.6 | 0.00 | 0.00 | 0.00 | 67 | 1014.9 |
| 20260503182727 | 63 | 177 | 0.9 | 2.6 | 0.00 | 0.00 | 0.00 | 67 | 1015.1 |
| 20260503182225 | 64 | 184 | 3.5 | 4.3 | 0.00 | 0.00 | 0.00 | 65 | 1015.0 |
| 20260503181722 | 64 | 177 | 0.9 | 6.1 | 0.00 | 0.00 | 0.00 | 65 | 1014.7 |
| 20260503181218 | 63 | 183 | 0.9 | 4.3 | 0.00 | 0.00 | 0.00 | 67 | 1014.7 |
| 20260503180714 | 64 | 159 | 2.6 | 2.6 | 0.00 | 0.00 | 0.00 | 65 | 1015.0 |
| 20260503180213 | 63 | 175 | 0.0 | 2.6 | 0.00 | 0.00 | 0.00 | 66 | 1015.0 |
| 20260503175709 | 63 | 182 | 0.9 | 1.7 | 0.00 | 0.00 | 0.00 | 67 | 1015.0 |
| 20260503175208 | 63 | 176 | 0.0 | 1.7 | 0.00 | 0.00 | 0.00 | 69 | 1015.0 |
| 20260503174703 | 62 | 181 | 1.7 | 4.3 | 0.00 | 0.00 | 0.00 | 69 | 1014.8 |
| 20260503174201 | 63 | 176 | 0.0 | 2.6 | 0.00 | 0.00 | 0.00 | 69 | 1015.0 |
| 20260503173656 | 62 | 182 | 0.9 | 2.6 | 0.00 | 0.00 | 0.00 | 72 | 1014.8 |
| 20260503173152 | 62 | 182 | 2.6 | 2.6 | 0.00 | 0.00 | 0.00 | 71 | 1014.8 |
| 20260503172649 | 61 | 156 | 0.9 | 2.6 | 0.00 | 0.00 | 0.00 | 73 | 1014.8 |
| 20260503172146 | 60 | 169 | 1.7 | 2.6 | 0.00 | 0.00 | 0.00 | 76 | 1015.1 |
| 20260503171643 | 59 | 164 | 0.0 | 0.9 | 0.00 | 0.00 | 0.00 | 78 | 1014.7 |
| 20260503171140 | 59 | 165 | 0.9 | 1.7 | 0.00 | 0.00 | 0.00 | 81 | 1015.0 |
| 20260503170637 | 59 | 164 | 0.9 | 1.7 | 0.00 | 0.00 | 0.00 | 83 | 1014.9 |
| 20260503170134 | 58 | 167 | 0.9 | 0.9 | 0.00 | 0.00 | 0.00 | 85 | 1015.0 |
| 20260503150525 | 56 | 164 | 0.9 | 0.9 | 0.00 | 0.00 | 0.00 | 88 | 1014.6 |
| 20260503131419 | 54 | 165 | 0.0 | 0.0 | 0.00 | 0.00 | 0.00 | 90 | 1013.3 |
| 20260503130915 | 54 | 164 | 0.0 | 0.0 | 0.00 | 0.00 | 0.00 | 90 | 1013.1 |
| 20260503130413 | 54 | 165 | 0.0 | 0.0 | 0.00 | 0.00 | 0.00 | 90 | 1013.0 |
| 20260503110812 | 55 | 165 | 0.0 | 0.0 | 0.00 | 0.00 | 0.00 | 85 | 1013.2 |
| 20260503110309 | 55 | 164 | 0.0 | 0.0 | 0.00 | 0.00 | 0.00 | 85 | 1013.2 |
| 20260503100235 | 55 | 165 | 0.0 | 0.0 | 0.00 | 0.00 | 0.00 | 85 | 1012.9 |
| 20260503090154 | 55 | 165 | 0.0 | 0.0 | 0.00 | 0.00 | 0.00 | 83 | 1013.2 |
| 20260503081629 | 55 | 165 | 0.0 | 0.9 | 0.00 | 0.00 | 0.00 | 83 | 1013.6 |
| 20260503081126 | 55 | 165 | 0.9 | 1.7 | 0.00 | 0.00 | 0.00 | 83 | 1013.8 |
| 20260503080622 | 55 | 165 | 0.0 | 0.0 | 0.00 | 0.00 | 0.00 | 83 | 1013.7 |
| 20260503080119 | 55 | 167 | 0.9 | 0.9 | 0.00 | 0.00 | 0.00 | 83 | 1013.9 |
| 20260503072556 | 55 | 167 | 0.0 | 0.0 | 0.00 | 0.00 | 0.00 | 82 | 1014.1 |
| 20260503072053 | 55 | 165 | 0.9 | 1.7 | 0.00 | 0.00 | 0.00 | 82 | 1014.0 |
| 20260503071550 | 55 | 166 | 0.0 | 1.7 | 0.00 | 0.00 | 0.00 | 82 | 1014.0 |
| 20260503071047 | 55 | 165 | 0.0 | 0.9 | 0.00 | 0.00 | 0.00 | 82 | 1014.0 |
| 20260503070543 | 55 | 166 | 0.0 | 0.9 | 0.00 | 0.00 | 0.00 | 82 | 1013.8 |
| 20260503055003 | 56 | 222 | 0.0 | 1.7 | 0.00 | 0.00 | 0.00 | 82 | 1014.4 |
| 20260503054458 | 56 | 186 | 0.9 | 0.9 | 0.00 | 0.00 | 0.00 | 82 | 1014.3 |
| 20260503053956 | 56 | 238 | 0.9 | 1.7 | 0.00 | 0.00 | 0.00 | 82 | 1014.3 |
| 20260503053454 | 55 | 227 | 0.9 | 1.7 | 0.00 | 0.00 | 0.00 | 82 | 1014.2 |
| 20260503052950 | 56 | 211 | 0.9 | 1.7 | 0.00 | 0.00 | 0.00 | 82 | 1014.4 |
| 20260503052448 | 56 | 193 | 0.0 | 0.9 | 0.00 | 0.00 | 0.00 | 83 | 1014.4 |
| 20260503051944 | 55 | 202 | 0.9 | 1.7 | 0.00 | 0.00 | 0.00 | 83 | 1014.3 |
| 20260503051440 | 55 | 279 | 2.6 | 4.3 | 0.00 | 0.00 | 0.00 | 83 | 1014.3 |
| 20260503050937 | 55 | 199 | 0.0 | 0.9 | 0.00 | 0.00 | 0.00 | 83 | 1014.1 |
| 20260503050433 | 55 | 195 | 0.0 | 0.9 | 0.00 | 0.00 | 0.00 | 84 | 1014.3 |
| 20260503045931 | 55 | 198 | 0.0 | 1.7 | 0.00 | 0.00 | 0.00 | 84 | 1014.3 |
| 20260503045428 | 56 | 250 | 0.9 | 2.6 | 0.00 | 0.00 | 0.00 | 84 | 1014.3 |
| 20260503044925 | 56 | 197 | 0.0 | 0.9 | 0.00 | 0.00 | 0.00 | 84 | 1014.2 |
| 20260503044422 | 55 | 258 | 1.7 | 1.7 | 0.00 | 0.00 | 0.00 | 83 | 1014.1 |
| 20260503043919 | 55 | 354 | 2.6 | 2.6 | 0.00 | 0.00 | 0.00 | 83 | 1014.1 |
| 20260503043416 | 56 | 287 | 3.5 | 5.2 | 0.00 | 0.00 | 0.00 | 82 | 1014.1 |
| 20260503042912 | 56 | 239 | 0.9 | 4.3 | 0.00 | 0.00 | 0.00 | 82 | 1013.9 |
| 20260503042409 | 56 | 198 | 0.0 | 2.6 | 0.00 | 0.00 | 0.00 | 81 | 1014.0 |
| 20260503041905 | 56 | 200 | 0.9 | 4.3 | 0.00 | 0.00 | 0.00 | 81 | 1014.1 |
| 20260503041402 | 56 | 247 | 0.9 | 2.6 | 0.00 | 0.00 | 0.00 | 80 | 1014.1 |
| 20260503040859 | 56 | 221 | 1.7 | 6.1 | 0.00 | 0.00 | 0.00 | 80 | 1013.9 |
| 20260503040357 | 56 | 266 | 0.0 | 4.3 | 0.00 | 0.00 | 0.00 | 80 | 1013.7 |
| 20260503035854 | 56 | 224 | 0.9 | 1.7 | 0.00 | 0.00 | 0.00 | 81 | 1013.9 |
| 20260503035351 | 56 | 192 | 1.7 | 4.3 | 0.00 | 0.00 | 0.00 | 81 | 1013.8 |
| 20260503034848 | 56 | 335 | 3.5 | 4.3 | 0.00 | 0.00 | 0.00 | 81 | 1013.7 |
| 20260503034346 | 57 | 208 | 0.0 | 1.7 | 0.00 | 0.00 | 0.00 | 81 | 1013.6 |
| 20260503033843 | 57 | 323 | 0.9 | 1.7 | 0.00 | 0.00 | 0.00 | 80 | 1013.5 |
| 20260503033340 | 57 | 254 | 0.0 | 1.7 | 0.00 | 0.00 | 0.00 | 80 | 1013.6 |
| 20260503032838 | 57 | 213 | 0.9 | 0.9 | 0.00 | 0.00 | 0.00 | 80 | 1013.6 |
| 20260503032337 | 57 | 254 | 2.6 | 2.6 | 0.00 | 0.00 | 0.00 | 80 | 1013.6 |
| 20260503031834 | 57 | 199 | 0.0 | 1.7 | 0.00 | 0.00 | 0.00 | 80 | 1013.3 |
| 20260503031331 | 57 | 290 | 1.7 | 2.6 | 0.00 | 0.00 | 0.00 | 80 | 1013.5 |
| 20260503030827 | 57 | 215 | 0.9 | 2.6 | 0.00 | 0.00 | 0.00 | 80 | 1013.4 |
| 20260503030324 | 57 | 209 | 1.7 | 1.7 | 0.00 | 0.00 | 0.00 | 80 | 1013.3 |
| 20260503025821 | 57 | 318 | 2.6 | 4.3 | 0.00 | 0.00 | 0.00 | 79 | 1013.3 |
| 20260503025318 | 57 | 237 | 0.9 | 1.7 | 0.00 | 0.00 | 0.00 | 78 | 1013.1 |
| 20260503024815 | 58 | 273 | 0.9 | 1.7 | 0.00 | 0.00 | 0.00 | 78 | 1013.2 |
| 20260503024312 | 58 | 195 | 0.0 | 0.9 | 0.00 | 0.00 | 0.00 | 77 | 1012.9 |
| 20260503023809 | 58 | 200 | 0.9 | 1.7 | 0.00 | 0.00 | 0.00 | 77 | 1012.9 |
| 20260503023306 | 59 | 192 | 0.9 | 1.7 | 0.00 | 0.00 | 0.00 | 76 | 1012.9 |
| 20260503022802 | 59 | 255 | 1.7 | 2.6 | 0.00 | 0.00 | 0.00 | 75 | 1012.8 |
| 20260503022257 | 59 | 244 | 0.0 | 0.9 | 0.00 | 0.00 | 0.00 | 75 | 1012.8 |
| 20260503021754 | 59 | 192 | 0.0 | 0.9 | 0.00 | 0.00 | 0.00 | 75 | 1012.9 |
| 20260503021250 | 59 | 193 | 0.0 | 0.9 | 0.00 | 0.00 | 0.00 | 75 | 1012.9 |
| 20260503020748 | 59 | 198 | 0.0 | 1.7 | 0.00 | 0.00 | 0.00 | 76 | 1012.9 |
| 20260503020246 | 59 | 235 | 0.9 | 2.6 | 0.00 | 0.00 | 0.00 | 76 | 1012.7 |
| 20260503015741 | 59 | 227 | 0.9 | 1.7 | 0.00 | 0.00 | 0.00 | 75 | 1012.8 |
| 20260503015238 | 60 | 210 | 1.7 | 2.6 | 0.00 | 0.00 | 0.00 | 75 | 1012.9 |
| 20260503014734 | 60 | 197 | 0.9 | 5.2 | 0.00 | 0.00 | 0.00 | 74 | 1012.7 |
| 20260503014233 | 61 | 226 | 0.9 | 2.6 | 0.00 | 0.00 | 0.00 | 73 | 1013.0 |
| 20260503013729 | 61 | 257 | 0.9 | 1.7 | 0.00 | 0.00 | 0.00 | 73 | 1012.6 |
| 20260503013227 | 61 | 192 | 0.0 | 5.2 | 0.00 | 0.00 | 0.00 | 73 | 1012.9 |
| 20260503012724 | 62 | 198 | 0.0 | 2.6 | 0.00 | 0.00 | 0.00 | 72 | 1012.9 |
| 20260503012221 | 62 | 352 | 0.9 | 1.7 | 0.00 | 0.00 | 0.00 | 72 | 1013.0 |
| 20260503011718 | 62 | 237 | 0.9 | 6.1 | 0.00 | 0.00 | 0.00 | 72 | 1012.9 |
| 20260503011215 | 63 | 337 | 1.7 | 2.6 | 0.00 | 0.00 | 0.00 | 71 | 1013.0 |
| 20260503010711 | 63 | 197 | 0.0 | 1.7 | 0.00 | 0.00 | 0.00 | 71 | 1012.5 |
| 20260503010208 | 63 | 191 | 0.9 | 2.6 | 0.00 | 0.00 | 0.00 | 71 | 1013.1 |
| 20260503005706 | 63 | 241 | 0.9 | 2.6 | 0.00 | 0.00 | 0.00 | 72 | 1012.8 |
| 20260503005203 | 64 | 216 | 1.7 | 2.6 | 0.00 | 0.00 | 0.00 | 71 | 1012.8 |
| 20260503004658 | 64 | 196 | 0.0 | 4.3 | 0.00 | 0.00 | 0.00 | 70 | 1012.9 |
| 20260503004157 | 64 | 144 | 0.9 | 4.3 | 0.00 | 0.00 | 0.00 | 70 | 1012.9 |
| 20260503003654 | 65 | 76 | 1.7 | 7.0 | 0.00 | 0.00 | 0.00 | 69 | 1012.7 |
| 20260503003151 | 66 | 219 | 3.5 | 4.3 | 0.00 | 0.00 | 0.00 | 67 | 1013.1 |
| 20260503002647 | 66 | 96 | 1.7 | 2.6 | 0.00 | 0.00 | 0.00 | 70 | 1013.1 |
| 20260503002144 | 66 | 219 | 0.9 | 0.9 | 0.00 | 0.00 | 0.00 | 68 | 1012.9 |
| 20260503001640 | 65 | 331 | 1.7 | 2.6 | 0.00 | 0.00 | 0.00 | 69 | 1013.0 |
| 20260503001137 | 66 | 193 | 0.9 | 1.7 | 0.00 | 0.00 | 0.00 | 69 | 1012.8 |
| 20260503000635 | 65 | 193 | 0.0 | 2.6 | 0.00 | 0.00 | 0.00 | 71 | 1013.0 |
| 20260503000132 | 66 | 246 | 2.6 | 2.6 | 0.00 | 0.00 | 0.00 | 67 | 1013.0 |
| 20260502235629 | 66 | 184 | 0.9 | 1.7 | 0.00 | 0.00 | 0.00 | 67 | 1012.9 |
| 20260502235127 | 65 | 267 | 0.9 | 1.7 | 0.00 | 0.00 | 0.00 | 69 | 1012.7 |
| 20260502234622 | 66 | 196 | 0.0 | 0.9 | 0.00 | 0.00 | 0.00 | 68 | 1012.9 |
| 20260502234120 | 66 | 246 | 0.9 | 5.2 | 0.00 | 0.00 | 0.00 | 67 | 1013.1 |
| 20260502233616 | 68 | 205 | 0.9 | 0.9 | 0.00 | 0.00 | 0.00 | 65 | 1013.1 |
| 20260502233113 | 68 | 195 | 0.0 | 0.9 | 0.00 | 0.00 | 0.00 | 65 | 1013.3 |
| 20260502232608 | 68 | 255 | 1.7 | 2.6 | 0.00 | 0.00 | 0.00 | 66 | 1013.2 |
| 20260502232106 | 67 | 193 | 0.9 | 1.7 | 0.00 | 0.00 | 0.00 | 68 | 1013.1 |
| 20260502231603 | 68 | 227 | 0.9 | 0.9 | 0.00 | 0.00 | 0.00 | 66 | 1013.5 |
| 20260502231101 | 67 | 218 | 0.9 | 4.3 | 0.00 | 0.00 | 0.00 | 68 | 1013.3 |
| 20260502230559 | 68 | 198 | 0.9 | 2.6 | 0.00 | 0.00 | 0.00 | 66 | 1013.3 |
| 20260502230057 | 68 | 248 | 0.9 | 1.7 | 0.00 | 0.00 | 0.00 | 67 | 1013.5 |
| 20260502225552 | 68 | 235 | 0.9 | 0.9 | 0.00 | 0.00 | 0.00 | 66 | 1013.4 |
| 20260502225050 | 67 | 204 | 0.9 | 1.7 | 0.00 | 0.00 | 0.00 | 67 | 1013.5 |
| 20260502224545 | 68 | 228 | 0.9 | 2.6 | 0.00 | 0.00 | 0.00 | 66 | 1013.7 |
| 20260502224043 | 67 | 271 | 0.9 | 4.3 | 0.00 | 0.00 | 0.00 | 68 | 1013.8 |
| 20260502223541 | 67 | 176 | 0.9 | 2.6 | 0.00 | 0.00 | 0.00 | 68 | 1013.7 |
| 20260502223039 | 67 | 267 | 1.7 | 2.6 | 0.00 | 0.00 | 0.00 | 68 | 1014.0 |
| 20260502222536 | 68 | 198 | 1.7 | 5.2 | 0.00 | 0.00 | 0.00 | 67 | 1013.8 |
| 20260502222032 | 68 | 200 | 0.9 | 5.2 | 0.00 | 0.00 | 0.00 | 67 | 1014.0 |
| 20260502221527 | 68 | 261 | 0.9 | 1.7 | 0.00 | 0.00 | 0.00 | 68 | 1014.3 |
| 20260502221025 | 67 | 237 | 0.0 | 2.6 | 0.00 | 0.00 | 0.00 | 69 | 1014.3 |
| 20260502220520 | 66 | 248 | 2.6 | 2.6 | 0.00 | 0.00 | 0.00 | 69 | 1014.6 |
| 20260502220018 | 66 | 223 | 1.7 | 1.7 | 0.00 | 0.00 | 0.00 | 69 | 1014.3 |
| 20260502215515 | 65 | 223 | 0.9 | 1.7 | 0.00 | 0.00 | 0.00 | 71 | 1014.4 |
| 20260502215012 | 66 | 289 | 1.7 | 2.6 | 0.00 | 0.00 | 0.00 | 70 | 1014.5 |
| 20260502214509 | 65 | 165 | 0.9 | 2.6 | 0.00 | 0.00 | 0.00 | 70 | 1014.7 |
| 20260502214006 | 65 | 208 | 0.9 | 4.3 | 0.00 | 0.00 | 0.00 | 72 | 1014.6 |
| 20260502213502 | 65 | 311 | 2.6 | 2.6 | 0.00 | 0.00 | 0.00 | 71 | 1014.5 |
| 20260502213001 | 65 | 304 | 0.9 | 2.6 | 0.00 | 0.00 | 0.00 | 71 | 1014.6 |
| 20260502212459 | 65 | 230 | 0.9 | 4.3 | 0.00 | 0.00 | 0.00 | 71 | 1014.7 |
| 20260502211956 | 65 | 192 | 0.0 | 4.3 | 0.00 | 0.00 | 0.00 | 71 | 1014.7 |
| 20260502211452 | 65 | 233 | 0.9 | 1.7 | 0.00 | 0.00 | 0.00 | 70 | 1014.7 |
| 20260502210950 | 64 | 230 | 0.9 | 4.3 | 0.00 | 0.00 | 0.00 | 72 | 1014.6 |
| 20260502210446 | 64 | 208 | 0.9 | 5.2 | 0.00 | 0.00 | 0.00 | 71 | 1014.9 |
| 20260502205943 | 65 | 342 | 1.7 | 4.3 | 0.00 | 0.00 | 0.00 | 71 | 1014.9 |
| 20260502205439 | 66 | 204 | 0.9 | 2.6 | 0.00 | 0.00 | 0.00 | 69 | 1015.1 |
| 20260502204937 | 66 | 199 | 0.0 | 1.7 | 0.00 | 0.00 | 0.00 | 69 | 1015.2 |
| 20260502204434 | 64 | 214 | 0.9 | 5.2 | 0.00 | 0.00 | 0.00 | 71 | 1014.8 |
| 20260502203932 | 65 | 251 | 3.5 | 5.2 | 0.00 | 0.00 | 0.00 | 70 | 1015.3 |
| 20260502203429 | 65 | 259 | 1.7 | 4.3 | 0.00 | 0.00 | 0.00 | 70 | 1015.3 |
| 20260502202924 | 64 | 215 | 1.7 | 5.2 | 0.00 | 0.00 | 0.00 | 73 | 1015.2 |
| 20260502202422 | 66 | 275 | 2.6 | 4.3 | 0.00 | 0.00 | 0.00 | 68 | 1015.4 |
| 20260502201920 | 65 | 269 | 2.6 | 5.2 | 0.00 | 0.00 | 0.00 | 69 | 1015.4 |
| 20260502201415 | 64 | 208 | 0.0 | 2.6 | 0.00 | 0.00 | 0.00 | 73 | 1015.5 |
| 20260502200913 | 64 | 181 | 1.7 | 4.3 | 0.00 | 0.00 | 0.00 | 73 | 1015.6 |
| 20260502200408 | 64 | 244 | 2.6 | 2.6 | 0.00 | 0.00 | 0.00 | 72 | 1015.7 |
| 20260502195906 | 63 | 270 | 1.7 | 5.2 | 0.00 | 0.00 | 0.00 | 74 | 1015.7 |
| 20260502195403 | 63 | 215 | 1.7 | 2.6 | 0.00 | 0.00 | 0.00 | 73 | 1015.7 |
| 20260502194859 | 62 | 198 | 2.6 | 6.1 | 0.00 | 0.00 | 0.00 | 74 | 1015.8 |
| 20260502194356 | 62 | 264 | 3.5 | 5.2 | 0.00 | 0.00 | 0.00 | 74 | 1015.8 |
| 20260502193852 | 62 | 289 | 0.9 | 5.2 | 0.00 | 0.00 | 0.00 | 74 | 1016.1 |
| 20260502193349 | 64 | 216 | 0.9 | 6.1 | 0.00 | 0.00 | 0.00 | 73 | 1015.8 |